Погода в Ядрино

Россия / Амурская область     48°58′28″N   131°01′09″E
темп.,
°C
ветер,
м/с
пор.,
м/с
влажн.,
%
обл.,
%
осадки,
мм/ч
давл.,
гПа
погр.,
м
19 апреля, пн
пн1900:00+4ссв11740 0.0 100714
03:00+2всв11770 0.0 100610
06:00+2с11760 0.0 100510
09:00+10зсз35482 0.0 1004610
12:00+14зсз58310 0.0 10011510
15:00+12зсз8104457 0.0 10021594
18:00+6сз713505 0.0 10051620
21:00+3сз714391 0.0 10071715
20 апреля, вт
вт2000:00−1сз716434 0.0 10101610
03:00−3зсз717420 0.0 10111641
06:00−4зсз719380 0.0 10121975
09:000сз820280 0.0 10122255
12:00+3сз916224 0.0 10132214
15:00+6сз814200 0.0 10131921
18:00+5сз614220 0.0 10141557
21:00+2сз311310 0.0 1017327
21 апреля, ср
ср2100:00−1з11380 0.0 101811
03:00−1в11360 0.0 101810
06:00+1в11330 0.0 101915
09:00+11ююв222412 0.0 1018415
12:00+18ююз34190 0.0 10161280
15:00+20ююз45180 0.0 10151717
18:00+18ююв48245 0.0 1015411
21:00+10вюв3539100 0.0 101679
22 апреля, чт
чт2200:00+9в3945100 0.0 1017161
03:00+9вюв41345100 0.0 1017283
06:00+10вюв51342100 0.0 1017363
09:00+15юв463386 0.0 1018486
12:00+21ююз4625100 0.0 10181676
15:00+22юз4624100 0.0 10172282
18:00+18зюз2535100 0.0 1018138
21:00+14ююз1146100 0.0 102012
23 апреля, пт
пт2300:00+11ссз2364100 0.0 102257
03:00+10сз1273100 0.0 102355
06:00+9с237589 0.0 102498
09:00+14зсз345428 0.0 1024830
12:00+16зсз445066 0.0 10241085
15:00+15сз664214 0.0 10231179
18:00+9сз5842100 0.0 1025911
21:00+7сз5936100 0.0 1026967